Starlink 30127

operational
NORAD ID: 56699 Int'l Des: 2023-067 Owner: SPXS Country: US Constellation: starlink
LEOCIRCULAR

Über Starlink 30127

Beschreibung wird geladen...

Live-Position

3D-Globus wird geladen...

Nächste Überflüge

Höhenverlauf

Altitude vs Time

uPlot chart will show altitude changes over time

Zweizeiliger Elementsatz

1 56699U 23067M 25306.15211175 .00000460 00000-0 49116-4 0 9997
2 56699 43.0050 247.5891 0001281 263.0799 96.9898 15.02526388136473
Epoch: 2. Nov. 2025 • Age: 31 hours

Aktueller Status

Höhe 560.0 km
Geschwindigkeit 7.59 km/s
Subsatellitenpunkt 28.08°N, 80.07°E
Startdatum 19. Mai 2023
Alter 2.4 years
Typ internet

Technische Details

Klassifizierung Payload
Masse 730.00 kg
Trockenmasse 700.00 kg
Gesamtmasse 730.00 kg
Länge 0.30 m
Durchmesser 4.10 m
Spannweite 29.00 m
Form Box + pan
Hersteller SPXS
Bus-Typ Starlink V2M
Phasenstatus In Orbit
Besitzer/Staat SPXS/US

Große Konstellationen

Loading constellations...